Total_Precipitation_Accumulation
0.04 0.07 0.11 0.16 0.18 0.21 0.26 0.35 0.41 0.44 0.41 0.50 0.60 0.72 0.97 1.17 1.42 1.49 1.57 1.85 2.11 2.34 2.48 2.82 3.21 3.51 4.04 4.19 4.14 4.23 4.38 4.59 4.74 5.05 5.16 5.46 5.80 6.02 6.16 6.07 5.85 5.90 5.92 6.00
0.08 0.11 0.11 0.15 0.15 0.17 0.27 0.43 0.47 0.44 0.42 0.52 0.71 0.87 1.08 1.30 1.45 1.43 1.58 1.76 2.00 2.42 2.74 2.95 3.15 3.56 4.09 4.35 4.42 4.49 4.71 5.04 5.24 5.52 5.99 6.31 6.63 6.83 7.00 7.02 6.59 6.31 6.19 6.08
0.09 0.11 0.10 0.12 0.13 0.16 0.21 0.31 0.40 0.46 0.50 0.59 0.82 1.21 1.42 1.58 1.66 1.79 2.01 2.19 2.30 2.54 2.91 3.01 3.06 3.49 3.85 4.11 4.28 4.51 4.78 5.27 5.82 6.21 6.64 7.00 7.22 7.23 7.03 6.72 6.66 6.45 6.27 6.16
0.10 0.07 0.08 0.11 0.14 0.17 0.20 0.23 0.34 0.41 0.58 0.74 0.87 1.59 1.98 1.99 1.99 2.21 2.41 2.44 2.52 2.62 2.82 2.97 3.11 3.42 3.73 4.03 4.22 4.60 5.15 5.91 6.47 6.88 7.42 7.96 8.11 7.81 7.41 6.95 6.49 6.21 5.97 5.68
0.12 0.10 0.12 0.13 0.15 0.18 0.19 0.21 0.29 0.36 0.47 0.70 0.93 1.47 2.38 2.44 2.41 2.57 2.72 2.51 2.51 2.42 2.50 2.77 2.94 3.17 3.66 3.96 4.21 4.57 5.20 5.99 6.72 7.52 8.15 8.59 8.47 8.06 7.58 6.88 6.28 5.83 5.44 5.09
0.12 0.10 0.11 0.10 0.11 0.16 0.16 0.21 0.30 0.37 0.51 0.84 0.92 1.32 2.17 2.52 2.68 2.79 2.69 2.43 2.35 2.25 2.27 2.39 2.58 2.96 3.50 3.78 3.97 4.32 4.97 5.78 6.46 7.06 7.56 7.80 7.69 7.48 6.92 6.23 5.59 5.20 4.90 4.55
0.20 0.19 0.13 0.10 0.10 0.17 0.20 0.29 0.64 0.88 1.02 1.06 0.84 1.18 1.96 2.25 2.39 2.33 2.34 2.37 2.20 2.25 2.18 2.18 2.34 2.64 3.05 3.20 3.54 3.94 4.41 5.10 5.56 5.89 6.24 6.44 6.57 6.38 6.01 5.50 5.02 4.60 4.15 3.79
0.34 0.33 0.17 0.11 0.12 0.20 0.23 0.28 0.73 1.10 1.16 1.18 1.15 1.62 2.21 2.19 2.09 2.03 1.98 2.01 2.06 2.21 2.21 2.19 2.35 2.57 2.83 3.01 3.15 3.31 3.60 4.01 4.20 4.25 4.47 4.77 4.84 4.79 4.64 4.36 3.96 3.69 3.36 2.99
0.45 0.35 0.18 0.13 0.11 0.16 0.23 0.24 0.36 0.71 0.84 1.29 1.62 2.09 2.59 2.29 2.15 2.12 2.03 1.88 1.85 1.92 2.04 2.22 2.34 2.37 2.38 2.41 2.48 2.58 2.79 2.94 3.00 3.09 3.18 3.35 3.40 3.37 3.32 3.20 2.94 2.73 2.59 2.33
0.39 0.35 0.19 0.14 0.13 0.17 0.21 0.29 0.45 0.82 1.30 1.59 1.86 2.57 3.24 2.96 2.45 2.11 1.87 1.66 1.62 1.72 1.85 2.04 2.20 2.20 2.20 2.11 2.15 2.25 2.39 2.47 2.47 2.55 2.55 2.51 2.54 2.53 2.54 2.42 2.30 2.24 2.17 2.05
0.36 0.40 0.26 0.20 0.25 0.27 0.31 0.38 0.56 0.86 1.06 1.58 2.13 2.92 2.98 3.15 2.92 2.40 2.06 1.88 1.79 1.73 1.82 2.00 2.03 2.00 2.01 1.99 2.02 2.10 2.12 2.15 2.16 2.16 2.21 2.21 2.11 2.09 2.16 2.15 2.01 1.98 1.95 1.82
0.36 0.50 0.47 0.33 0.28 0.26 0.30 0.37 0.57 1.12 1.27 1.33 2.03 3.08 2.80 3.05 3.17 2.84 2.56 2.40 2.29 2.09 1.97 1.96 1.90 1.84 1.80 1.88 1.94 2.04 2.01 1.95 1.99 1.89 1.84 1.86 1.90 1.86 1.88 1.86 1.75 1.74 1.81 1.73
0.41 0.64 1.04 0.98 0.77 0.48 0.40 0.40 0.48 0.67 1.10 1.44 2.12 3.29 3.19 3.05 3.12 3.02 2.74 2.61 2.63 2.49 2.35 2.19 2.00 1.93 1.88 1.88 1.86 1.76 1.80 1.82 1.84 1.82 1.77 1.73 1.77 1.81 1.79 1.73 1.70 1.67 1.72 1.71
0.37 0.67 1.27 1.67 1.25 0.80 0.59 0.46 0.48 0.66 1.22 1.48 1.90 2.66 3.03 3.06 3.04 3.03 3.12 3.07 3.04 2.77 2.56 2.42 2.21 2.16 2.06 2.02 2.03 1.91 1.84 1.72 1.74 1.74 1.71 1.75 1.81 1.87 1.85 1.83 1.83 1.77 1.68 1.61
0.52 0.95 0.93 0.83 0.74 0.68 0.59 0.57 0.56 0.62 0.80 1.24 1.70 2.21 2.71 2.87 2.97 3.20 3.36 3.30 3.04 2.65 2.43 2.41 2.37 2.38 2.29 2.12 2.05 1.96 1.83 1.67 1.66 1.63 1.67 1.74 1.82 1.84 1.76 1.80 1.78 1.75 1.74 1.61
0.63 0.97 0.96 0.84 0.67 0.73 0.74 0.77 0.78 0.76 0.85 1.18 1.68 2.43 2.73 2.88 3.13 3.21 3.21 3.31 3.27 2.86 2.59 2.48 2.38 2.31 2.35 2.22 2.09 1.95 1.88 1.82 1.77 1.73 1.70 1.67 1.68 1.63 1.60 1.60 1.64 1.57 1.55 1.56
0.69 1.02 1.38 1.27 0.78 1.03 1.43 1.25 1.10 1.09 1.15 1.39 1.85 2.27 2.40 2.58 2.81 3.09 3.29 3.33 3.45 3.14 2.78 2.57 2.50 2.38 2.35 2.41 2.42 2.28 2.06 1.93 1.71 1.64 1.61 1.53 1.47 1.43 1.46 1.43 1.44 1.49 1.56 1.55
0.63 1.08 1.36 1.37 1.50 2.04 1.70 1.17 1.08 1.23 1.35 1.36 1.60 1.72 2.00 2.27 2.47 2.79 3.05 3.37 3.54 3.28 2.98 2.72 2.56 2.47 2.42 2.43 2.42 2.25 2.07 1.84 1.66 1.62 1.54 1.42 1.32 1.29 1.40 1.36 1.37 1.44 1.45 1.43
0.51 1.04 1.48 1.67 2.05 2.12 1.75 1.19 1.08 1.44 1.78 1.41 1.45 1.53 1.61 1.75 2.06 2.65 2.68 2.82 3.15 3.18 3.01 2.82 2.60 2.50 2.45 2.30 2.21 2.15 1.91 1.80 1.73 1.58 1.48 1.33 1.25 1.28 1.31 1.25 1.28 1.37 1.36 1.33
0.63 0.98 1.55 1.80 2.31 2.57 2.09 1.11 0.83 1.28 2.31 1.68 1.48 1.59 1.63 1.87 2.31 2.41 2.16 2.22 2.42 2.62 2.69 2.62 2.44 2.33 2.34 2.19 2.07 2.09 1.96 1.79 1.73 1.61 1.51 1.37 1.34 1.34 1.34 1.35 1.32 1.29 1.28 1.25
1.18 1.37 1.65 1.91 2.29 2.33 1.36 0.89 1.07 2.19 2.62 1.80 1.49 1.63 1.88 2.24 2.23 1.86 1.65 1.79 1.96 2.06 2.21 2.27 2.27 2.26 2.17 1.98 1.95 2.11 2.22 2.05 1.74 1.61 1.56 1.56 1.55 1.48 1.43 1.45 1.42 1.36 1.26 1.25
1.36 1.65 1.82 2.01 2.51 2.51 1.18 1.00 1.68 2.04 1.59 1.45 1.47 1.53 1.58 1.62 1.49 1.39 1.43 1.60 1.63 1.74 1.87 2.02 2.19 2.16 2.11 2.00 1.95 1.93 1.99 1.98 1.81 1.70 1.67 1.63 1.54 1.47 1.46 1.54 1.47 1.43 1.47 1.42
1.27 1.55 1.75 2.01 2.40 1.92 1.21 1.13 1.19 1.22 1.35 1.36 1.44 1.43 1.34 1.31 1.32 1.27 1.36 1.54 1.64 1.68 1.78 1.86 1.97 2.01 2.00 1.90 1.92 1.92 1.87 1.71 1.68 1.79 1.74 1.66 1.57 1.51 1.53 1.57 1.47 1.38 1.48 1.44
1.30 1.08 1.25 1.54 1.64 1.49 1.35 1.17 1.10 1.14 1.18 1.24 1.34 1.35 1.29 1.29 1.22 1.21 1.35 1.50 1.59 1.58 1.62 1.72 1.84 1.92 1.89 1.75 1.72 1.73 1.65 1.65 1.70 1.70 1.66 1.66 1.63 1.51 1.43 1.41 1.35 1.31 1.33 1.39
1.34 1.17 1.34 1.61 1.60 1.52 1.54 1.40 1.29 1.32 1.30 1.23 1.31 1.38 1.34 1.29 1.32 1.25 1.35 1.37 1.41 1.47 1.51 1.59 1.78 1.86 1.77 1.62 1.51 1.46 1.55 1.66 1.75 1.65 1.50 1.47 1.43 1.36 1.33 1.27 1.20 1.16 1.10 1.11
1.23 1.30 1.46 1.74 1.61 1.59 1.56 1.42 1.34 1.56 1.67 1.50 1.42 1.39 1.33 1.29 1.33 1.21 1.18 1.17 1.19 1.25 1.35 1.51 1.61 1.65 1.59 1.50 1.45 1.38 1.44 1.56 1.62 1.55 1.47 1.42 1.31 1.24 1.14 1.11 1.11 1.14 1.04 0.97